Time[GMT],gps_lat[degrees_north](-3m),gps_lon[degrees_west](-3m),gps_2_lat[degrees_north](-3m),gps_2_lon[degrees_west](-3m)
2008-04-21 20:00,,,43.71,-69.40
2008-04-21 20:30,,,43.71,-69.36
2008-04-21 21:00,,,43.71,-69.36
2008-04-21 22:00,43.713817596,-69.355346680,43.71,-69.36
2008-04-21 23:00,,,43.71,-69.36
2008-04-22 00:00,43.713867188,-69.355346680,43.71,-69.36
2008-04-22 01:00,43.713882446,-69.355415344,43.71,-69.36
2008-04-22 02:00,43.713951111,-69.355415344,43.71,-69.36
2008-04-22 03:00,43.713932037,-69.355415344,43.71,-69.36
2008-04-22 04:00,43.713966370,-69.355415344,43.71,-69.36
2008-04-22 05:00,43.713916779,-69.355384827,43.71,-69.36
2008-04-22 06:00,43.713832855,-69.355400085,43.71,-69.36
2008-04-22 07:00,43.713783264,-69.355384827,43.71,-69.36
2008-04-22 08:00,43.713768005,-69.355384827,43.71,-69.36
2008-04-22 09:00,43.713798523,-69.355400085,43.71,-69.36
2008-04-22 10:00,43.713832855,-69.355430603,43.71,-69.36
2008-04-22 11:00,43.713832855,-69.355346680,43.71,-69.36
2008-04-22 12:00,43.713848114,-69.355400085,43.70,-69.35
2008-04-22 13:00,43.713916779,-69.355384827,43.71,-69.36
2008-04-22 14:00,43.713932037,-69.355400085,43.71,-69.36
2008-04-22 15:00,43.713882446,-69.355400085,43.71,-69.36
2008-04-22 16:00,43.713901520,-69.355369568,43.71,-69.36
2008-04-22 17:00,43.713916779,-69.355384827,43.71,-69.36
2008-04-22 18:00,43.713916779,-69.355384827,43.71,-69.36
2008-04-22 19:00,43.713932037,-69.355369568,43.71,-69.36
2008-04-22 20:00,43.713951111,-69.355369568,43.71,-69.36
2008-04-22 21:00,43.713951111,-69.355316162,43.71,-69.36
2008-04-22 22:00,43.713951111,-69.355369568,43.71,-69.36
2008-04-22 23:00,43.713901520,-69.355384827,43.71,-69.36
2008-04-23 00:00,43.713882446,-69.355384827,43.71,-69.36
2008-04-23 01:00,43.713916779,-69.355384827,43.71,-69.36
2008-04-23 02:00,43.713932037,-69.355400085,43.71,-69.36
2008-04-23 03:00,43.713951111,-69.355430603,43.71,-69.36
2008-04-23 04:00,43.713882446,-69.355514526,43.71,-69.36
2008-04-23 05:00,43.713848114,-69.355552673,43.71,-69.36
2008-04-23 06:00,43.713832855,-69.355651855,43.71,-69.36
2008-04-23 07:00,43.713848114,-69.355636597,43.71,-69.36
2008-04-23 08:00,43.713901520,-69.355598450,43.71,-69.36
2008-04-23 09:00,43.713798523,-69.355613708,43.71,-69.36
2008-04-23 10:00,43.713798523,-69.355636597,43.71,-69.36
2008-04-23 11:00,43.713867188,-69.355567932,43.71,-69.36
2008-04-23 12:00,43.713901520,-69.355514526,43.71,-69.36
2008-04-23 13:00,43.713901520,-69.355529785,43.71,-69.36
2008-04-23 14:00,43.713916779,-69.355529785,43.71,-69.36
2008-04-23 15:00,43.713901520,-69.355598450,43.71,-69.36
2008-04-23 16:00,43.713882446,-69.355583191,43.71,-69.36
2008-04-23 17:00,43.713932037,-69.355567932,43.71,-69.36
2008-04-23 18:00,43.713901520,-69.355552673,43.71,-69.36
2008-04-23 19:00,43.713916779,-69.355567932,43.71,-69.36
2008-04-23 20:00,43.713817596,-69.355613708,43.71,-69.36
2008-04-23 21:00,43.713783264,-69.355567932,43.71,-69.36
2008-04-23 22:00,43.713798523,-69.355583191,43.71,-69.36
2008-04-23 23:00,43.713817596,-69.355598450,43.71,-69.36
2008-04-24 00:00,43.713817596,-69.355552673,43.71,-69.36
2008-04-24 01:00,43.713867188,-69.355567932,43.71,-69.36
2008-04-24 02:00,43.713901520,-69.355552673,43.71,-69.36
2008-04-24 03:00,43.713901520,-69.355583191,43.71,-69.36
2008-04-24 04:00,43.713882446,-69.355651855,43.71,-69.36
2008-04-24 05:00,43.713798523,-69.355667114,43.71,-69.36
2008-04-24 06:00,43.713798523,-69.355651855,43.71,-69.36
2008-04-24 07:00,43.713783264,-69.355598450,43.71,-69.36
2008-04-24 08:00,43.713798523,-69.355667114,43.71,-69.36
2008-04-24 09:00,43.713832855,-69.355651855,43.71,-69.36
2008-04-24 10:00,43.713817596,-69.355552673,43.71,-69.36
2008-04-24 11:00,43.713783264,-69.355484009,43.71,-69.36
2008-04-24 12:00,43.713783264,-69.355400085,43.71,-69.36
2008-04-24 13:00,43.713783264,-69.355369568,43.71,-69.36
2008-04-24 14:00,43.713783264,-69.355430603,43.71,-69.36
2008-04-24 15:00,43.713817596,-69.355514526,43.71,-69.36
2008-04-24 16:00,43.713817596,-69.355598450,43.71,-69.36
2008-04-24 17:00,43.713798523,-69.355598450,43.71,-69.36
2008-04-24 18:00,43.713733673,-69.355850220,43.71,-69.36
2008-04-24 19:00,43.713798523,-69.355751038,43.71,-69.36
2008-04-24 20:00,43.713768005,-69.355751038,43.71,-69.36
2008-04-24 21:00,43.713768005,-69.355735779,43.71,-69.36
2008-04-24 22:00,43.713798523,-69.355697632,43.71,-69.36
2008-04-24 23:00,43.713832855,-69.355697632,43.71,-69.36
2008-04-25 00:00,43.713832855,-69.355598450,43.71,-69.36
2008-04-25 01:00,43.713867188,-69.355583191,43.71,-69.36
2008-04-25 02:00,43.713768005,-69.355613708,43.71,-69.36
2008-04-25 03:00,43.713832855,-69.355697632,43.71,-69.36
2008-04-25 04:00,43.713832855,-69.355682373,43.71,-69.36
2008-04-25 05:00,43.713848114,-69.355651855,43.71,-69.36
2008-04-25 06:00,43.713817596,-69.355682373,43.70,-69.35
2008-04-25 07:00,43.713832855,-69.355712891,43.71,-69.36
2008-04-25 08:00,43.713768005,-69.355697632,43.71,-69.36
2008-04-25 09:00,43.713768005,-69.355735779,43.71,-69.36
2008-04-25 10:00,43.713748932,-69.355651855,43.71,-69.36
2008-04-25 11:00,43.713718414,-69.355613708,43.71,-69.36
2008-04-25 12:00,43.713748932,-69.355636597,43.71,-69.36
2008-04-25 13:00,43.713733673,-69.355613708,43.71,-69.36
2008-04-25 14:00,43.713748932,-69.355667114,43.71,-69.36
2008-04-25 15:00,43.713798523,-69.355697632,43.71,-69.36
2008-04-25 16:00,43.713817596,-69.355697632,43.71,-69.36
2008-04-25 17:00,43.713848114,-69.355735779,43.71,-69.36
2008-04-25 18:00,43.713867188,-69.355712891,43.71,-69.36
2008-04-25 19:00,43.713882446,-69.355651855,43.71,-69.36
2008-04-25 20:00,43.713901520,-69.355682373,43.71,-69.36
2008-04-25 21:00,43.713848114,-69.355651855,43.71,-69.36
2008-04-25 22:00,43.713832855,-69.355667114,43.71,-69.36
2008-04-25 23:00,43.713798523,-69.355613708,43.71,-69.36
2008-04-26 00:00,43.713783264,-69.355636597,43.71,-69.36
2008-04-26 01:00,43.713832855,-69.355667114,43.71,-69.36
2008-04-26 02:00,43.713832855,-69.355667114,43.71,-69.36
2008-04-26 03:00,43.713817596,-69.355735779,43.71,-69.36
2008-04-26 04:00,43.713817596,-69.355735779,43.71,-69.36
2008-04-26 05:00,43.713783264,-69.355712891,43.71,-69.36
2008-04-26 06:00,43.713783264,-69.355735779,43.71,-69.36
2008-04-26 07:00,43.713783264,-69.355766296,43.71,-69.36
2008-04-26 08:00,43.713783264,-69.355735779,43.71,-69.36
2008-04-26 09:00,43.713768005,-69.355766296,43.71,-69.36
2008-04-26 10:00,43.713768005,-69.355781555,43.71,-69.36
2008-04-26 11:00,43.713665009,-69.355819702,43.71,-69.36
2008-04-26 12:00,43.713665009,-69.355834961,43.71,-69.36
2008-04-26 13:00,43.713684082,-69.355796814,43.71,-69.36
2008-04-26 14:00,43.713684082,-69.355834961,43.71,-69.36
2008-04-26 15:00,43.713684082,-69.355834961,43.71,-69.36
2008-04-26 16:00,43.713733673,-69.355819702,43.71,-69.36
2008-04-26 17:00,43.713768005,-69.355796814,43.71,-69.36
2008-04-26 18:00,43.713798523,-69.355796814,43.71,-69.36
2008-04-26 19:00,43.713817596,-69.355781555,43.71,-69.36
2008-04-26 20:00,43.713848114,-69.355796814,43.71,-69.36
2008-04-26 21:00,43.713848114,-69.355819702,43.71,-69.36
2008-04-26 22:00,43.713832855,-69.355735779,43.71,-69.36
2008-04-26 23:00,43.713783264,-69.355667114,43.71,-69.36
2008-04-27 00:00,43.713768005,-69.355651855,43.71,-69.36
2008-04-27 01:00,43.713748932,-69.355712891,43.71,-69.36
2008-04-27 02:00,43.713768005,-69.355697632,43.71,-69.36
2008-04-27 03:00,43.713768005,-69.355712891,43.71,-69.36
2008-04-27 04:00,43.713798523,-69.355735779,43.71,-69.36
2008-04-27 05:00,43.713768005,-69.355735779,43.71,-69.36
2008-04-27 06:00,43.713748932,-69.355766296,43.71,-69.36
2008-04-27 07:00,43.713748932,-69.355751038,43.71,-69.36
2008-04-27 08:00,43.713798523,-69.355819702,43.71,-69.36
2008-04-27 09:00,43.713768005,-69.355850220,43.71,-69.36
2008-04-27 10:00,43.713783264,-69.355834961,43.71,-69.36
2008-04-27 11:00,43.713768005,-69.355751038,43.71,-69.36
2008-04-27 12:00,43.713615417,-69.355850220,43.71,-69.36
2008-04-27 13:00,43.713649750,-69.355834961,43.71,-69.36
2008-04-27 14:00,43.713699341,-69.355865479,43.71,-69.36
2008-04-27 15:00,43.713718414,-69.355850220,43.71,-69.36
2008-04-27 16:00,43.713748932,-69.355796814,43.71,-69.36
2008-04-27 17:00,43.713783264,-69.355766296,43.71,-69.36
2008-04-27 18:00,43.713798523,-69.355682373,43.71,-69.36
2008-04-27 19:00,43.713848114,-69.355667114,43.71,-69.36
2008-04-27 20:00,43.713832855,-69.355667114,43.71,-69.36
2008-04-27 21:00,43.713798523,-69.355712891,43.71,-69.36
2008-04-27 22:00,43.713733673,-69.355697632,43.71,-69.36
2008-04-27 23:00,43.713718414,-69.355651855,43.71,-69.36
2008-04-28 00:00,43.713634491,-69.355613708,43.71,-69.36
2008-04-28 01:00,43.713584900,-69.355651855,43.71,-69.36
2008-04-28 02:00,43.713600159,-69.355598450,43.71,-69.36
2008-04-28 03:00,43.713634491,-69.355651855,43.71,-69.36
2008-04-28 04:00,43.713699341,-69.355636597,43.71,-69.36
2008-04-28 05:00,43.713733673,-69.355682373,43.71,-69.36
2008-04-28 06:00,43.713718414,-69.355667114,43.71,-69.36
2008-04-28 07:00,43.713699341,-69.355682373,43.71,-69.36
2008-04-28 08:00,43.713768005,-69.355682373,43.71,-69.36
2008-04-28 09:00,43.713783264,-69.355712891,43.71,-69.36
2008-04-28 10:00,43.713783264,-69.355751038,43.71,-69.36
2008-04-28 11:00,43.713718414,-69.355751038,43.71,-69.36
2008-04-28 12:00,43.713718414,-69.355751038,43.71,-69.36
2008-04-28 13:00,43.713699341,-69.355819702,43.71,-69.36
2008-04-28 14:00,43.713684082,-69.355850220,43.71,-69.36
2008-04-28 15:00,43.713699341,-69.355865479,43.71,-69.36
2008-04-28 16:00,43.713718414,-69.355880737,43.71,-69.36
2008-04-28 17:00,43.713768005,-69.355850220,43.71,-69.36
2008-04-28 18:00,43.713848114,-69.355880737,43.71,-69.36
2008-04-28 19:00,43.713832855,-69.355865479,43.71,-69.36
2008-04-28 20:00,43.713882446,-69.355796814,43.71,-69.36
2008-04-28 21:00,43.713867188,-69.355766296,43.71,-69.36
2008-04-28 22:00,43.713848114,-69.355819702,43.71,-69.36
2008-04-28 23:00,43.713867188,-69.355796814,43.71,-69.36
2008-04-29 00:00,43.713916779,-69.355834961,43.71,-69.36
2008-04-29 01:00,43.713951111,-69.355834961,43.71,-69.36
2008-04-29 02:00,43.714084625,-69.356201172,43.71,-69.36
2008-04-29 03:00,43.714134216,-69.356147766,43.71,-69.36
2008-04-29 04:00,43.714199066,-69.356086731,43.71,-69.36
2008-04-29 05:00,43.714199066,-69.356132507,43.71,-69.36
2008-04-29 06:00,43.714218140,-69.356086731,43.71,-69.36
2008-04-29 07:00,43.714233398,-69.356063843,43.71,-69.36
2008-04-29 08:00,43.714248657,-69.356101990,43.71,-69.36
2008-04-29 09:00,43.714298248,-69.356163025,43.71,-69.36
2008-04-29 10:00,43.714199066,-69.356216431,43.71,-69.36
2008-04-29 11:00,43.714183807,-69.356147766,43.71,-69.36
2008-04-29 12:00,43.714168549,-69.356147766,43.71,-69.36
2008-04-29 13:00,43.714084625,-69.356147766,43.71,-69.36
2008-04-29 14:00,43.714084625,-69.356163025,43.71,-69.36
2008-04-29 15:00,43.714168549,-69.356201172,43.71,-69.36
2008-04-29 16:00,43.714218140,-69.356147766,43.71,-69.36
2008-04-29 17:00,43.714183807,-69.356018066,43.71,-69.36
2008-04-29 18:00,43.714218140,-69.356147766,43.71,-69.36
2008-04-29 19:00,43.714248657,-69.356117249,43.71,-69.36
2008-04-29 20:00,43.714248657,-69.356132507,43.71,-69.36
2008-04-29 21:00,43.714267731,-69.356063843,43.71,-69.36
2008-04-29 22:00,43.714115143,-69.356018066,43.71,-69.36
2008-04-29 23:00,43.713718414,-69.356033325,43.71,-69.36
2008-04-30 00:00,43.713665009,-69.356002808,43.71,-69.36
2008-04-30 01:00,43.713584900,-69.355667114,43.71,-69.36
2008-04-30 02:00,43.713451385,-69.355453491,43.71,-69.36
2008-04-30 03:00,43.713417053,-69.355583191,43.71,-69.36
2008-04-30 04:00,43.713500977,-69.355682373,43.71,-69.36
2008-04-30 05:00,43.713451385,-69.355667114,43.71,-69.36
2008-04-30 06:00,43.713451385,-69.355697632,43.71,-69.36
2008-04-30 07:00,43.713451385,-69.355880737,43.71,-69.36
2008-04-30 08:00,43.713531494,-69.356048584,43.71,-69.36
2008-04-30 09:00,43.713615417,-69.356117249,43.71,-69.36
2008-04-30 10:00,43.713600159,-69.356132507,43.71,-69.36
2008-04-30 11:00,43.713615417,-69.356163025,43.71,-69.36
2008-04-30 12:00,43.713665009,-69.356201172,43.71,-69.36
2008-04-30 13:00,43.713718414,-69.356163025,43.71,-69.36
2008-04-30 14:00,43.713634491,-69.356101990,43.71,-69.36
2008-04-30 15:00,43.713584900,-69.356101990,43.71,-69.36
2008-04-30 16:00,43.713649750,-69.356063843,43.71,-69.36
2008-04-30 17:00,43.713718414,-69.356101990,43.71,-69.36
2008-04-30 18:00,43.713748932,-69.356101990,43.71,-69.36
2008-04-30 19:00,43.713783264,-69.356117249,43.71,-69.36
2008-04-30 20:00,43.713748932,-69.356132507,43.71,-69.36
2008-04-30 21:00,43.713798523,-69.356185913,43.71,-69.36
2008-04-30 22:00,43.713718414,-69.356147766,43.71,-69.36
2008-04-30 23:00,43.713634491,-69.356132507,43.71,-69.36
2008-05-01 00:00,43.713584900,-69.356132507,43.71,-69.36
2008-05-01 01:00,43.713584900,-69.356101990,43.71,-69.36
2008-05-01 02:00,43.713600159,-69.356132507,43.71,-69.36
2008-05-01 03:00,43.713665009,-69.356147766,43.71,-69.36
2008-05-01 04:00,43.713684082,-69.356147766,43.71,-69.36
2008-05-01 05:00,43.713665009,-69.356048584,43.71,-69.36
2008-05-01 06:00,43.713684082,-69.356063843,43.71,-69.36
2008-05-01 07:00,43.713718414,-69.356048584,43.71,-69.36
2008-05-01 08:00,43.713665009,-69.356033325,43.71,-69.36
2008-05-01 09:00,43.713699341,-69.356033325,43.71,-69.36
2008-05-01 10:00,43.713649750,-69.356018066,43.71,-69.36
2008-05-01 11:00,43.713600159,-69.356063843,43.71,-69.36
2008-05-01 12:00,43.713615417,-69.356101990,43.71,-69.36
2008-05-01 13:00,43.713615417,-69.356048584,43.71,-69.36
2008-05-01 14:00,43.713600159,-69.356063843,43.71,-69.36
2008-05-01 15:00,43.713516235,-69.356101990,43.71,-69.36
2008-05-01 16:00,43.713600159,-69.356147766,43.71,-69.36
2008-05-01 17:00,43.713684082,-69.356018066,43.71,-69.36
2008-05-01 18:00,43.713733673,-69.355964661,43.71,-69.36
2008-05-01 19:00,43.713817596,-69.355949402,43.71,-69.36
2008-05-01 20:00,43.713867188,-69.355918884,43.71,-69.36
2008-05-01 21:00,43.713951111,-69.355850220,43.71,-69.36
2008-05-01 22:00,43.713916779,-69.355850220,43.71,-69.36
2008-05-01 23:00,43.713882446,-69.355796814,43.71,-69.36
2008-05-02 00:00,43.713832855,-69.355865479,43.71,-69.36
2008-05-02 01:00,43.713699341,-69.355918884,43.71,-69.36
2008-05-02 02:00,43.713634491,-69.355964661,43.71,-69.36
2008-05-02 03:00,43.713565826,-69.355934143,43.71,-69.36
2008-05-02 04:00,43.713584900,-69.355934143,43.71,-69.36
2008-05-02 05:00,43.713500977,-69.355880737,43.71,-69.36
2008-05-02 06:00,43.713481903,-69.355918884,43.71,-69.36
2008-05-02 07:00,43.713565826,-69.355949402,43.71,-69.36
2008-05-02 08:00,43.713584900,-69.356018066,43.71,-69.36
2008-05-02 09:00,43.713665009,-69.356185913,43.71,-69.36
2008-05-02 10:00,43.713733673,-69.356216431,43.71,-69.36
2008-05-02 11:00,43.713748932,-69.356246948,43.71,-69.36
2008-05-02 12:00,43.713733673,-69.356269836,43.71,-69.36
2008-05-02 13:00,43.713798523,-69.356315613,43.71,-69.36
2008-05-02 14:00,43.713718414,-69.356246948,43.71,-69.36
2008-05-02 15:00,43.713718414,-69.356216431,43.71,-69.36
2008-05-02 16:00,43.713748932,-69.356201172,43.71,-69.36
2008-05-02 17:00,43.713768005,-69.356163025,43.71,-69.36
2008-05-02 18:00,43.713867188,-69.356101990,43.71,-69.36
2008-05-02 19:00,43.713867188,-69.356132507,43.71,-69.36
2008-05-02 20:00,43.713932037,-69.356033325,43.71,-69.36
2008-05-02 21:00,43.713932037,-69.356063843,43.71,-69.36
2008-05-02 22:00,43.713951111,-69.356063843,43.71,-69.36
2008-05-02 23:00,43.713867188,-69.356048584,43.71,-69.36
2008-05-03 00:00,43.713867188,-69.356063843,43.71,-69.36
2008-05-03 01:00,43.713817596,-69.356101990,43.71,-69.36
2008-05-03 02:00,43.713768005,-69.356117249,43.71,-69.36
2008-05-03 03:00,43.713531494,-69.356048584,43.71,-69.36
2008-05-03 04:00,43.713550568,-69.356018066,43.71,-69.36
2008-05-03 05:00,43.713531494,-69.355934143,43.71,-69.36
2008-05-03 06:00,43.713584900,-69.356018066,43.71,-69.36
2008-05-03 07:00,43.713665009,-69.356048584,43.71,-69.36
2008-05-03 08:00,43.713634491,-69.356101990,43.71,-69.36
2008-05-03 09:00,43.713733673,-69.356269836,43.71,-69.36
2008-05-03 10:00,43.713783264,-69.356285095,43.71,-69.36
2008-05-03 11:00,43.713848114,-69.356269836,43.71,-69.36
2008-05-03 12:00,43.713832855,-69.356231689,43.71,-69.36
2008-05-03 13:00,43.713848114,-69.356185913,43.71,-69.36
2008-05-03 14:00,43.713817596,-69.356132507,43.71,-69.36
2008-05-03 15:00,43.713768005,-69.356132507,43.71,-69.36
2008-05-03 16:00,43.713699341,-69.356163025,43.71,-69.36
2008-05-03 17:00,43.713733673,-69.356147766,43.71,-69.36
2008-05-03 18:00,43.713718414,-69.356132507,43.71,-69.36
2008-05-03 19:00,43.713699341,-69.356086731,43.71,-69.36
2008-05-03 20:00,43.713699341,-69.356132507,43.71,-69.36
2008-05-03 21:00,43.713733673,-69.356117249,43.71,-69.36
2008-05-03 22:00,43.713768005,-69.356117249,43.71,-69.36
2008-05-03 23:00,43.713768005,-69.356101990,43.71,-69.36
2008-05-04 00:00,43.713817596,-69.356147766,43.71,-69.36
2008-05-04 01:00,43.713798523,-69.356132507,43.71,-69.36
2008-05-04 02:00,43.713798523,-69.356185913,43.71,-69.36
2008-05-04 03:00,43.713817596,-69.356216431,43.71,-69.36
2008-05-04 04:00,43.713916779,-69.356246948,43.71,-69.36
2008-05-04 05:00,43.713783264,-69.356101990,43.71,-69.36
2008-05-04 06:00,43.713748932,-69.356101990,43.71,-69.36
2008-05-04 07:00,43.713798523,-69.356086731,43.71,-69.36
2008-05-04 08:00,43.713817596,-69.356117249,43.71,-69.36
2008-05-04 09:00,43.713882446,-69.356185913,43.71,-69.36
2008-05-04 10:00,43.713882446,-69.356147766,43.71,-69.36
2008-05-04 11:00,43.713901520,-69.356147766,43.71,-69.36
2008-05-04 12:00,43.713951111,-69.356117249,43.71,-69.36
2008-05-04 13:00,43.713932037,-69.356086731,43.71,-69.36
2008-05-04 14:00,43.713867188,-69.356117249,43.71,-69.36
2008-05-04 15:00,43.713848114,-69.356117249,43.71,-69.36
2008-05-04 16:00,43.713817596,-69.356117249,43.71,-69.36
2008-05-04 17:00,43.713783264,-69.356101990,43.71,-69.36
2008-05-04 18:00,43.713768005,-69.356185913,43.71,-69.36
2008-05-04 19:00,43.713733673,-69.356147766,43.71,-69.36
2008-05-04 20:00,43.713699341,-69.356147766,43.71,-69.36
2008-05-04 21:00,43.713684082,-69.356231689,43.71,-69.36
2008-05-04 22:00,43.713684082,-69.356216431,43.71,-69.36
2008-05-04 23:00,43.713798523,-69.356246948,43.71,-69.36
2008-05-05 00:00,43.713848114,-69.356246948,43.71,-69.36
2008-05-05 01:00,43.713848114,-69.356246948,43.71,-69.36
2008-05-05 02:00,43.713832855,-69.356216431,43.71,-69.36
2008-05-05 03:00,43.713783264,-69.356185913,43.71,-69.36
2008-05-05 04:00,43.713748932,-69.356163025,43.71,-69.36
2008-05-05 05:00,43.713699341,-69.356086731,43.71,-69.36
2008-05-05 06:00,43.713634491,-69.356063843,43.71,-69.36
2008-05-05 07:00,43.713584900,-69.355979919,43.71,-69.36
2008-05-05 08:00,43.713600159,-69.355964661,43.71,-69.36
2008-05-05 09:00,43.713600159,-69.355979919,43.71,-69.36
2008-05-05 10:00,43.713600159,-69.355934143,43.71,-69.36
2008-05-05 11:00,43.713615417,-69.356018066,43.71,-69.36
2008-05-05 12:00,43.713699341,-69.356101990,43.71,-69.36
2008-05-05 13:00,43.713718414,-69.356132507,43.71,-69.36
2008-05-05 14:00,43.713718414,-69.356185913,43.71,-69.36
2008-05-05 15:00,43.713768005,-69.356086731,43.71,-69.36
2008-05-05 16:00,43.713817596,-69.356132507,43.71,-69.36
2008-05-05 17:00,43.713798523,-69.356101990,43.71,-69.36
2008-05-05 18:00,43.713832855,-69.356048584,43.71,-69.36
2008-05-05 19:00,43.713798523,-69.356002808,43.71,-69.36
2008-05-05 20:00,43.713832855,-69.355979919,43.71,-69.36
2008-05-05 21:00,43.713798523,-69.356048584,43.71,-69.36
2008-05-05 22:00,43.713817596,-69.356048584,43.71,-69.36
2008-05-05 23:00,43.713832855,-69.356002808,43.71,-69.36
2008-05-06 00:00,43.713867188,-69.355979919,43.71,-69.36
2008-05-06 01:00,43.713882446,-69.355949402,43.71,-69.36
2008-05-06 02:00,43.713832855,-69.355979919,43.71,-69.36
2008-05-06 03:00,43.713817596,-69.356002808,43.71,-69.36
2008-05-06 04:00,43.713817596,-69.356018066,43.71,-69.36
2008-05-06 05:00,43.713748932,-69.356018066,43.71,-69.36
2008-05-06 06:00,43.713718414,-69.356018066,43.71,-69.36
2008-05-06 07:00,43.713699341,-69.356086731,43.71,-69.36
2008-05-06 08:00,43.713665009,-69.356101990,43.71,-69.36
2008-05-06 09:00,43.713684082,-69.356101990,43.71,-69.36
2008-05-06 10:00,43.713699341,-69.356101990,43.71,-69.36
2008-05-06 11:00,43.713748932,-69.356117249,43.71,-69.36
2008-05-06 12:00,43.713783264,-69.356185913,43.71,-69.36
2008-05-06 13:00,43.713901520,-69.356101990,43.71,-69.36
2008-05-06 14:00,43.713867188,-69.356033325,43.71,-69.36
2008-05-06 15:00,43.713798523,-69.356002808,43.71,-69.36
2008-05-06 16:00,43.713768005,-69.356048584,43.71,-69.36
2008-05-06 17:00,43.713768005,-69.356101990,43.71,-69.36
2008-05-06 18:00,43.713748932,-69.356086731,43.71,-69.36
2008-05-06 19:00,43.713748932,-69.356002808,43.71,-69.36
2008-05-06 20:00,43.713768005,-69.356018066,43.71,-69.36
2008-05-06 21:00,43.713783264,-69.356002808,43.71,-69.36
2008-05-06 22:00,43.713882446,-69.355964661,43.71,-69.36
2008-05-06 23:00,43.713882446,-69.355964661,43.71,-69.36
2008-05-07 00:00,43.713867188,-69.355949402,43.71,-69.36
2008-05-07 01:00,43.713817596,-69.355979919,43.71,-69.36
2008-05-07 02:00,43.713783264,-69.356048584,43.71,-69.36
2008-05-07 03:00,43.713768005,-69.356048584,43.71,-69.36
2008-05-07 04:00,43.713748932,-69.356101990,43.71,-69.36
2008-05-07 05:00,43.713733673,-69.356185913,43.71,-69.36
2008-05-07 06:00,43.713584900,-69.356063843,43.71,-69.36
2008-05-07 07:00,43.713733673,-69.356163025,43.71,-69.36
2008-05-07 08:00,43.713634491,-69.356163025,43.71,-69.36
2008-05-07 09:00,43.713699341,-69.356185913,43.71,-69.36
2008-05-07 10:00,43.713665009,-69.356132507,43.71,-69.36
2008-05-07 11:00,43.713699341,-69.356086731,43.71,-69.36
2008-05-07 12:00,43.713748932,-69.356117249,43.71,-69.36
2008-05-07 13:00,43.713768005,-69.356033325,43.71,-69.36
2008-05-07 14:00,43.713783264,-69.356048584,43.71,-69.36
2008-05-07 15:00,43.713798523,-69.356132507,43.71,-69.36
2008-05-07 16:00,43.713748932,-69.356063843,43.71,-69.36
2008-05-07 17:00,43.713733673,-69.356101990,43.71,-69.36
2008-05-07 18:00,43.713783264,-69.356063843,43.71,-69.36
2008-05-07 19:00,43.713718414,-69.356048584,43.71,-69.36
2008-05-07 20:00,43.713748932,-69.355949402,43.71,-69.36
2008-05-07 21:00,43.713817596,-69.355903625,43.71,-69.36
2008-05-07 22:00,43.713798523,-69.355979919,43.71,-69.36
2008-05-07 23:00,43.713832855,-69.355949402,43.71,-69.36
2008-05-08 00:00,43.713882446,-69.355949402,43.71,-69.36
2008-05-08 01:00,43.713901520,-69.355903625,43.71,-69.36
2008-05-08 02:00,43.713932037,-69.355903625,43.71,-69.36
2008-05-08 03:00,43.713951111,-69.355918884,43.71,-69.36
2008-05-08 04:00,43.713901520,-69.355918884,43.71,-69.36
2008-05-08 05:00,43.713867188,-69.355949402,43.71,-69.36
2008-05-08 06:00,43.713768005,-69.355964661,43.71,-69.36
2008-05-08 07:00,43.713665009,-69.355918884,43.71,-69.36
2008-05-08 08:00,43.713665009,-69.355918884,43.71,-69.36
2008-05-08 09:00,43.713783264,-69.355979919,43.71,-69.36
2008-05-08 10:00,43.713848114,-69.356018066,43.71,-69.36
2008-05-08 11:00,43.714035034,-69.355880737,43.71,-69.36
2008-05-08 12:00,43.714183807,-69.355781555,43.71,-69.36
2008-05-08 13:00,43.714183807,-69.355636597,43.71,-69.36
2008-05-08 14:00,43.714183807,-69.355651855,43.71,-69.36
2008-05-08 15:00,43.714183807,-69.355613708,43.71,-69.36
2008-05-08 16:00,43.714149475,-69.355598450,43.71,-69.36
2008-05-08 17:00,43.713932037,-69.355346680,43.71,-69.36
2008-05-08 18:00,43.713718414,-69.355346680,43.71,-69.36
2008-05-08 19:00,43.713615417,-69.355529785,43.71,-69.36
2008-05-08 20:00,43.713634491,-69.355682373,43.71,-69.36
2008-05-08 21:00,43.713684082,-69.355751038,43.71,-69.36
2008-05-08 22:00,43.713733673,-69.355735779,43.71,-69.36
2008-05-08 23:00,43.713718414,-69.355667114,43.71,-69.36